Time,TemperatureF,DewpointF,PressureIn,WindDirection,WindDirectionDegrees,WindSpeedMPH,WindSpeedGustMPH,Humidity,HourlyPrecipIn,Conditions,Clouds,dailyrainin,SolarRadiationWatts/m^2,SoftwareType,DateUTC
2013-03-08 00:21:00,45.0,33.0,-100.00,SSE,162,0.0,5.0,63,0.00,,,0.00,0.000000,,2013-03-08 08:21:00,
2013-03-08 00:31:00,45.0,33.0,-100.00,SSE,162,0.0,5.0,63,0.00,,,0.00,0.000000,,2013-03-08 08:31:00,
2013-03-08 00:41:00,45.0,33.0,-100.00,SSE,162,0.0,5.0,63,0.00,,,0.00,0.000000,,2013-03-08 08:41:00,
2013-03-08 00:52:00,45.0,33.0,-100.00,SSE,162,0.0,5.0,63,0.00,,,0.00,0.000000,,2013-03-08 08:52:00,
2013-03-08 01:21:00,45.0,33.0,-100.00,NNE,12,0.0,4.0,63,0.00,,,0.00,0.000000,,2013-03-08 09:21:00,
2013-03-08 01:32:00,45.0,33.0,-100.00,NNE,12,0.0,4.0,63,0.00,,,0.00,0.000000,,2013-03-08 09:32:00,
2013-03-08 01:42:00,45.0,33.0,-100.00,NNE,12,0.0,4.0,63,0.00,,,0.00,0.000000,,2013-03-08 09:42:00,
2013-03-08 01:51:00,45.0,33.0,-100.00,NNE,12,0.0,4.0,63,0.00,,,0.00,0.000000,,2013-03-08 09:51:00,
2013-03-08 02:21:00,43.0,33.0,-100.00,North,1,3.0,9.0,68,0.00,,,0.00,0.000000,,2013-03-08 10:21:00,
2013-03-08 02:31:00,43.0,33.0,-100.00,North,1,3.0,9.0,68,0.00,,,0.00,0.000000,,2013-03-08 10:31:00,
2013-03-08 02:41:00,43.0,33.0,-100.00,North,1,3.0,9.0,68,0.00,,,0.00,0.000000,,2013-03-08 10:41:00,
2013-03-08 02:51:00,43.0,33.0,-100.00,North,1,3.0,9.0,68,0.00,,,0.00,0.000000,,2013-03-08 10:51:00,
2013-03-08 03:21:00,41.0,37.0,-100.00,North,7,8.0,12.0,85,0.02,,,0.02,0.000000,,2013-03-08 11:21:00,
2013-03-08 03:32:00,41.0,37.0,-100.00,North,7,8.0,12.0,85,0.02,,,0.02,0.000000,,2013-03-08 11:32:00,
2013-03-08 03:41:00,41.0,37.0,-100.00,North,7,8.0,12.0,85,0.02,,,0.02,0.000000,,2013-03-08 11:41:00,
2013-03-08 03:52:00,41.0,37.0,-100.00,North,7,8.0,12.0,85,0.02,,,0.02,0.000000,,2013-03-08 11:52:00,
2013-03-08 04:22:00,42.0,39.0,-100.00,North,2,9.0,14.0,88,0.00,,,0.02,0.000000,,2013-03-08 12:22:00,
2013-03-08 04:32:00,42.0,39.0,-100.00,North,2,9.0,14.0,88,0.00,,,0.02,0.000000,,2013-03-08 12:32:00,
2013-03-08 04:42:00,42.0,39.0,-100.00,North,2,9.0,14.0,88,0.00,,,0.02,0.000000,,2013-03-08 12:42:00,
2013-03-08 04:52:00,42.0,39.0,-100.00,North,2,9.0,14.0,88,0.00,,,0.02,0.000000,,2013-03-08 12:52:00,
2013-03-08 05:21:00,41.0,38.0,-100.00,North,3,8.0,14.0,89,0.01,,,0.03,0.000000,,2013-03-08 13:21:00,
2013-03-08 05:32:00,41.0,38.0,-100.00,North,3,8.0,14.0,89,0.01,,,0.03,0.000000,,2013-03-08 13:32:00,
2013-03-08 05:42:00,41.0,38.0,-100.00,North,3,8.0,14.0,89,0.01,,,0.03,0.000000,,2013-03-08 13:42:00,
2013-03-08 05:52:00,41.0,38.0,-100.00,North,3,8.0,14.0,89,0.01,,,0.03,0.000000,,2013-03-08 13:52:00,
2013-03-08 06:22:00,38.0,37.0,-100.00,SSE,154,17.0,25.0,96,0.04,,,0.07,0.000000,,2013-03-08 14:22:00,
2013-03-08 06:32:00,38.0,37.0,-100.00,SSE,154,17.0,25.0,96,0.04,,,0.07,0.000000,,2013-03-08 14:32:00,
2013-03-08 06:42:00,38.0,37.0,-100.00,SSE,154,17.0,25.0,96,0.04,,,0.07,0.000000,,2013-03-08 14:42:00,
2013-03-08 06:52:00,38.0,37.0,-100.00,SSE,154,17.0,25.0,96,0.04,,,0.07,0.000000,,2013-03-08 14:52:00,
2013-03-08 07:22:00,34.0,33.0,-100.00,SSE,161,21.0,28.0,96,0.05,,,0.12,7.000000,,2013-03-08 15:22:00,
2013-03-08 07:32:00,34.0,33.0,-100.00,SSE,161,21.0,28.0,96,0.05,,,0.12,7.000000,,2013-03-08 15:32:00,
2013-03-08 07:42:00,34.0,33.0,-100.00,SSE,161,21.0,28.0,96,0.05,,,0.12,7.000000,,2013-03-08 15:42:00,
2013-03-08 07:52:00,34.0,33.0,-100.00,SSE,161,21.0,28.0,96,0.05,,,0.12,7.000000,,2013-03-08 15:52:00,
2013-03-08 08:21:00,35.0,34.0,-100.00,SSW,193,7.0,26.0,97,0.01,,,0.13,35.000000,,2013-03-08 16:21:00,
2013-03-08 08:31:00,35.0,34.0,-100.00,SSW,193,7.0,26.0,97,0.01,,,0.13,35.000000,,2013-03-08 16:31:00,
2013-03-08 08:42:00,35.0,34.0,-100.00,SSW,193,7.0,26.0,97,0.01,,,0.13,35.000000,,2013-03-08 16:42:00,
2013-03-08 08:52:00,35.0,34.0,-100.00,SSW,193,7.0,26.0,97,0.01,,,0.13,35.000000,,2013-03-08 16:52:00,
2013-03-08 09:21:00,36.0,35.0,-100.00,South,185,11.0,16.0,97,0.01,,,0.14,76.000000,,2013-03-08 17:21:00,
2013-03-08 09:32:00,36.0,35.0,-100.00,South,185,11.0,16.0,97,0.01,,,0.14,76.000000,,2013-03-08 17:32:00,
2013-03-08 09:41:00,36.0,35.0,-100.00,South,185,11.0,16.0,97,0.01,,,0.14,76.000000,,2013-03-08 17:41:00,
2013-03-08 09:52:00,36.0,35.0,-100.00,South,185,11.0,16.0,97,0.01,,,0.14,76.000000,,2013-03-08 17:52:00,
2013-03-08 10:21:00,32.0,31.0,-100.00,SSE,161,13.0,21.0,97,0.00,,,-99.99,58.000000,,2013-03-08 18:21:00,
2013-03-08 10:31:00,32.0,31.0,-100.00,SSE,161,13.0,21.0,97,0.00,,,-99.99,58.000000,,2013-03-08 18:31:00,
2013-03-08 10:42:00,32.0,31.0,-100.00,SSE,161,13.0,21.0,97,0.00,,,-99.99,58.000000,,2013-03-08 18:42:00,
2013-03-08 10:51:00,32.0,31.0,-100.00,SSE,161,13.0,21.0,97,0.00,,,-99.99,58.000000,,2013-03-08 18:51:00,
2013-03-08 11:21:00,32.0,31.0,-100.00,SSE,160,3.0,14.0,97,0.00,,,0.14,99.000000,,2013-03-08 19:21:00,
2013-03-08 11:32:00,32.0,31.0,-100.00,SSE,160,3.0,14.0,97,0.00,,,0.14,99.000000,,2013-03-08 19:32:00,
2013-03-08 11:41:00,32.0,31.0,-100.00,SSE,160,3.0,14.0,97,0.00,,,0.14,99.000000,,2013-03-08 19:41:00,
2013-03-08 11:51:00,32.0,31.0,-100.00,SSE,160,3.0,14.0,97,0.00,,,0.14,99.000000,,2013-03-08 19:51:00,
2013-03-08 12:21:00,37.0,36.0,-100.00,SSW,194,0.0,4.0,97,0.04,,,0.18,318.000000,,2013-03-08 20:21:00,
2013-03-08 12:31:00,37.0,36.0,-100.00,SSW,194,0.0,4.0,97,0.04,,,0.18,318.000000,,2013-03-08 20:31:00,
2013-03-08 12:41:00,37.0,36.0,-100.00,SSW,194,0.0,4.0,97,0.04,,,0.18,318.000000,,2013-03-08 20:41:00,
2013-03-08 12:52:00,37.0,36.0,-100.00,SSW,194,0.0,4.0,97,0.04,,,0.18,318.000000,,2013-03-08 20:52:00,
2013-03-08 13:21:00,40.0,39.0,-100.00,SSW,193,8.0,14.0,97,0.00,,,0.18,667.000000,,2013-03-08 21:21:00,
2013-03-08 13:32:00,40.0,39.0,-100.00,SSW,193,8.0,14.0,97,0.00,,,0.18,667.000000,,2013-03-08 21:32:00,
2013-03-08 13:41:00,40.0,39.0,-100.00,SSW,193,8.0,14.0,97,0.00,,,0.18,667.000000,,2013-03-08 21:41:00,
2013-03-08 13:51:00,40.0,39.0,-100.00,SSW,193,8.0,14.0,97,0.00,,,0.18,667.000000,,2013-03-08 21:51:00,
2013-03-08 14:22:00,42.0,36.0,-100.00,South,189,8.0,14.0,80,0.00,,,0.18,463.000000,,2013-03-08 22:22:00,
2013-03-08 14:32:00,42.0,36.0,-100.00,South,189,8.0,14.0,80,0.00,,,0.18,463.000000,,2013-03-08 22:32:00,
2013-03-08 14:42:00,42.0,36.0,-100.00,South,189,8.0,14.0,80,0.00,,,0.18,463.000000,,2013-03-08 22:42:00,
2013-03-08 14:52:00,42.0,36.0,-100.00,South,189,8.0,14.0,80,0.00,,,0.18,463.000000,,2013-03-08 22:52:00,
2013-03-08 15:21:00,46.0,37.0,-100.00,South,186,4.0,13.0,71,0.00,,,0.18,515.000000,,2013-03-08 23:21:00,
2013-03-08 15:32:00,46.0,37.0,-100.00,South,186,4.0,13.0,71,0.00,,,0.18,515.000000,,2013-03-08 23:32:00,
2013-03-08 15:42:00,46.0,37.0,-100.00,South,186,4.0,13.0,71,0.00,,,0.18,515.000000,,2013-03-08 23:42:00,
2013-03-08 15:52:00,46.0,37.0,-100.00,South,186,4.0,13.0,71,0.00,,,0.18,515.000000,,2013-03-08 23:52:00,
2013-03-08 16:21:00,44.0,34.0,-100.00,SSE,168,16.0,27.0,68,0.00,,,0.18,561.000000,,2013-03-09 00:21:00,
2013-03-08 16:31:00,44.0,34.0,-100.00,SSE,168,16.0,27.0,68,0.00,,,0.18,561.000000,,2013-03-09 00:31:00,
2013-03-08 16:42:00,44.0,34.0,-100.00,SSE,168,16.0,27.0,68,0.00,,,0.18,561.000000,,2013-03-09 00:42:00,
2013-03-08 16:51:00,44.0,34.0,-100.00,SSE,168,16.0,27.0,68,0.00,,,0.18,561.000000,,2013-03-09 00:51:00,
2013-03-08 17:21:00,42.0,33.0,-100.00,South,179,16.0,25.0,70,0.00,,,0.18,332.000000,,2013-03-09 01:21:00,
2013-03-08 17:31:00,42.0,33.0,-100.00,South,179,16.0,25.0,70,0.00,,,0.18,332.000000,,2013-03-09 01:31:00,
2013-03-08 17:41:00,42.0,33.0,-100.00,South,179,16.0,25.0,70,0.00,,,0.18,332.000000,,2013-03-09 01:41:00,
2013-03-08 17:51:00,42.0,33.0,-100.00,South,179,16.0,25.0,70,0.00,,,0.18,332.000000,,2013-03-09 01:51:00,
2013-03-08 20:22:00,42.0,32.0,-100.00,NE,39,3.0,19.0,68,-99.99,,,0.18,0.000000,,2013-03-09 04:22:00,
2013-03-08 20:31:00,42.0,32.0,-100.00,NE,39,3.0,19.0,68,-99.99,,,0.18,0.000000,,2013-03-09 04:31:00,
2013-03-08 20:41:00,42.0,32.0,-100.00,NE,39,3.0,19.0,68,-99.99,,,0.18,0.000000,,2013-03-09 04:41:00,
2013-03-08 20:51:00,42.0,32.0,-100.00,NE,39,3.0,19.0,68,-99.99,,,0.18,0.000000,,2013-03-09 04:51:00,
2013-03-08 21:21:00,43.0,32.0,-100.00,SSE,149,5.0,10.0,66,0.00,,,0.18,0.000000,,2013-03-09 05:21:00,
2013-03-08 21:31:00,43.0,32.0,-100.00,SSE,149,5.0,10.0,66,0.00,,,0.18,0.000000,,2013-03-09 05:31:00,
2013-03-08 21:42:00,43.0,32.0,-100.00,SSE,149,5.0,10.0,66,0.00,,,0.18,0.000000,,2013-03-09 05:42:00,
2013-03-08 21:52:00,43.0,32.0,-100.00,SSE,149,5.0,10.0,66,0.00,,,0.18,0.000000,,2013-03-09 05:52:00,
2013-03-08 22:22:00,43.0,31.0,-100.00,SSE,150,7.0,13.0,62,0.00,,,0.18,0.000000,,2013-03-09 06:22:00,
2013-03-08 22:31:00,43.0,31.0,-100.00,SSE,150,7.0,13.0,62,0.00,,,0.18,0.000000,,2013-03-09 06:31:00,
2013-03-08 22:42:00,43.0,31.0,-100.00,SSE,150,7.0,13.0,62,0.00,,,0.18,0.000000,,2013-03-09 06:42:00,
2013-03-08 22:51:00,43.0,31.0,-100.00,SSE,150,7.0,13.0,62,0.00,,,0.18,0.000000,,2013-03-09 06:51:00,
2013-03-08 23:21:00,43.0,34.0,-100.00,SSW,202,2.0,12.0,69,0.00,,,0.18,0.000000,,2013-03-09 07:21:00,
2013-03-08 23:31:00,43.0,34.0,-100.00,SSW,202,2.0,12.0,69,0.00,,,0.18,0.000000,,2013-03-09 07:31:00,
2013-03-08 23:41:00,43.0,34.0,-100.00,SSW,202,2.0,12.0,69,0.00,,,0.18,0.000000,,2013-03-09 07:41:00,
2013-03-08 23:51:00,43.0,34.0,-100.00,SSW,202,2.0,12.0,69,0.00,,,0.18,0.000000,,2013-03-09 07:51:00,